Regional Weather Roundup
Issued by NWS

Home | Current Version | Previous Version | Text Only | Print | Product List | Glossary Off
Versions: 1 2 3 4 5 6 7 8 9 10 11 12 13 14 15 16 17 18 19 20 21 22 23 24 25 26 27 28 29 30 31 32 33 34 35 36 37 38 39 40 41 42 43 44 45 46 47 48 49 50

775
ASUS44 KJAN 311010
RWRMS

MISSISSIPPI HOURLY WEATHER ROUNDUP
NATIONAL WEATHER SERVICE JACKSON MS
500 AM CDT THU JUL 31 2014

NOTE: "FAIR: INDICATES FEW OR NO CLOUDS BELOW 12,000 FEET WITH NO
SIGNIFICANT WEATHER AND/OR OBSTRUCTIONS TO VISIBILITY.

MSZ001>002-007>008-010>013-018>021-025>028-034>036-311100-
NORTHWEST MISSISSIPPI

CITY           SKY/WX    TMP DP  RH WIND       PRES   REMARKS
CLEVELAND      DRIZZLE   70  69  98 N5        30.06R
GREENWOOD      CLOUDY    70  66  87 CALM      30.05R
GREENVILLE     CLOUDY    71  68  90 N8        30.05S
GRENADA        CLOUDY    68  64  88 NW3       30.06R
OXFORD         FAIR      68  63  83 CALM      30.07S
TUNICA         CLOUDY    70  64  83 W5        30.08S
$$

MSZ003>006-009-014>017-022>024-029>033-037>039-311100-
NORTHEAST MISSISSIPPI

CITY           SKY/WX    TMP DP  RH WIND       PRES   REMARKS
BELMONT        CLOUDY    67  64  91 CALM      30.06S
COLUMBUS AFB   CLOUDY    68  63  83 CALM      30.04S
CORINTH          N/A     66  64  94 CALM      30.06S FOG
GOLDN TRIANGLE CLOUDY    68  61  77 N3        30.04F
STARKVILLE     CLOUDY    68  63  83 CALM      30.04S
TUPELO         CLOUDY    70  63  78 NE5       30.04F
$$

MSZ040-058-311100-
CENTRAL MISSISSIPPI

CITY           SKY/WX    TMP DP  RH WIND       PRES   REMARKS
JACKSON INTL   CLOUDY    71  62  73 CALM      30.03S
JACKSON HAWKNS CLOUDY    74  58  57 CALM      30.04R
MERIDIAN KEY   MOCLDY    66  61  84 N3        30.02F
MERIDIAN NAS   CLOUDY    67  61  81 CALM      30.03S
RAYMOND        FAIR      68  64  88 E3        30.03S
VICKSBURG      CLOUDY    71  65  81 N3        30.03R
$$

MSZ059>079-311100-
SOUTH MISSISSIPPI

CITY           SKY/WX    TMP DP  RH WIND       PRES   REMARKS
BROOKHAVEN     FAIR      70  63  78 CALM      30.03F
COLUMBIA       FAIR      66  64  94 CALM      30.01S
HATTIESBURG    PTCLDY    65  62  90 CALM      30.02F
MCCOMB         CLOUDY    71  60  68 E3        30.02S
NATCHEZ        CLOUDY    72  61  68 CALM      30.03R
PINE BELT      PTCLDY    63  59  88 CALM      30.03S
$$

MSZ080>082-311100-
COASTAL MISSISSIPPI

CITY           SKY/WX    TMP DP  RH WIND       PRES   REMARKS
BILOXI         MOCLDY    68  62  80 NE6       30.00R
PASCAGOULA     CLEAR     63  61  93 CALM      30.00S
GULFPORT       PTCLDY    73  61  65 N3        29.99S
$$



USA.gov is the U.S. government's official web portal to all federal, state and local government web resources and services.